This demonstration page uses our WeatherBlox Daily Observations layout. Learn more.

Left ArrowRight Arrow

44.89941, -97.11507

Hourly Observations for April 3, 2016

Temp ( °F °C ) Dew Point ( °F °C ) Humidity (%) Winds ( mph kmh ) Pressure ( in mb ) Visibility ( mi km ) Precip ( " mm )
12:53 am 00:53 Clear 40 4.4 32 0 73 73 SSE 10 17 29.76 1008 10 16 0.00 0.00
1:53 am 01:53 Clear 46 7.8 33 0.6 61 61 S 12 19 29.71 1006 10 16 0.00 0.00
2:53 am 02:53 Clear 48 8.9 33 0.6 56 56 SW 18 30 29.67 1005 10 16 0.00 0.00
3:53 am 03:53 Clear 47 8.3 33 0.6 59 59 SSW 16 26 29.64 1004 10 16 0.00 0.00
4:53 am 04:53 Clear 46 7.8 33 0.6 61 61 SSW 13 20 29.62 1003 10 16 0.00 0.00
5:53 am 05:53 Clear 45 7.2 33 0.6 63 63 SSW 14 22 29.60 1002 10 16 0.00 0.00
6:53 am 06:53 Clear 44 6.7 33 0.6 65 65 SW 14 22 29.59 1002 10 16 0.00 0.00
7:53 am 07:53 Sunny 46 7.8 34 1.1 63 63 SW 14 22 29.58 1002 10 16 0.00 0.00
8:53 am 08:53 Mostly Sunny 52 11.1 35 1.7 53 53 WSW 17 28 29.56 1001 10 16 0.00 0.00
9:53 am 09:53 Sunny 58 14.4 35 1.7 42 42 W 18 30 29.56 1001 10 16 0.00 0.00
10:53 am 10:53 Sunny 61 16.1 35 1.7 38 38 WNW 17 28 29.59 1002 10 16 0.00 0.00
11:53 am 11:53 Sunny 66 18.9 36 2.2 33 33 WNW 13 20 29.58 1002 10 16 0.00 0.00
12:53 pm 12:53 Sunny 69 20.6 34 1.1 27 27 NNW 25 41 29.61 1003 10 16 0.00 0.00
1:53 pm 13:53 Mostly Cloudy 65 18.3 35 1.7 33 33 NNW 20 31 29.64 1004 10 16 0.00 0.00
2:53 pm 14:53 Mostly Cloudy 64 17.8 32 0 30 30 NNW 18 30 29.69 1005 10 16 0.00 0.00
3:53 pm 15:53 Mostly Sunny 65 18.3 31 -0.6 28 28 NNW 18 30 29.71 1006 10 16 0.00 0.00
4:53 pm 16:53 Cloudy 57 13.9 28 -2.2 33 33 N 20 31 29.78 1008 10 16 0.00 0.00
5:53 pm 17:53 Mostly Sunny 54 12.2 26 -3.3 34 34 NNW 22 35 29.83 1010 10 16 0.00 0.00
6:53 pm 18:53 Sunny 52 11.1 26 -3.3 37 37 N 16 26 29.85 1011 10 16 0.00 0.00
7:53 pm 19:53 Sunny 45 7.2 26 -3.3 48 48 N 10 17 29.89 1012 10 16 0.00 0.00
8:53 pm 20:53 Clear 37 2.8 25 -3.9 62 62 N 12 19 29.94 1014 10 16 0.00 0.00
9:53 pm 21:53 Clear 36 2.2 22 -5.6 57 57 NNE 16 26 29.99 1016 10 16 0.00 0.00
10:53 pm 22:53 Clear 32 0 21 -6.1 64 64 NNE 10 17 30.03 1017 10 16 0.00 0.00
11:53 pm 23:53 Clear 29 -1.7 20 -6.7 69 69 N 12 19 30.04 1017 10 16 0.00 0.00

Powered by AerisWeather